EW4350 Weather Reports


time (UTC)temp
C
wind
direction
speed
KPH
gust
KPH
rain 1hr
cm
rain 24hr
cm
rain mn
cm
humidity
%
barometer
mb
20260503191004 16 16 9.7 19.3 0.00 0.00 0.00 35 1016.2
20260503190504 16 16 9.7 20.9 0.00 0.00 0.00 36 1016.2
20260503190005 15 16 11.3 20.9 0.00 0.00 0.00 36 1016.3
20260503185504 16 16 9.7 20.9 0.00 0.00 0.00 37 1016.3
20260503185004 16 17 9.7 30.6 0.00 0.00 0.00 36 1016.5
20260503184505 15 16 8.0 30.6 0.00 0.00 0.00 39 1016.4
20260503183504 15 17 11.3 22.5 0.00 0.00 0.00 37 1016.6
20260503182005 15 16 11.3 22.5 0.00 0.00 0.00 39 1016.5
20260503181505 15 15 11.3 22.5 0.00 0.00 0.00 38 1016.6
20260503181004 15 15 9.7 27.4 0.00 0.00 0.00 39 1016.5
20260503180504 15 16 9.7 27.4 0.00 0.00 0.00 40 1016.6
20260503175004 15 15 9.7 27.4 0.00 0.00 0.00 40 1016.8
20260503174504 14 16 11.3 27.4 0.00 0.00 0.00 41 1016.7
20260503174004 14 16 11.3 27.4 0.00 0.00 0.00 40 1016.9
20260503173504 14 15 11.3 25.7 0.00 0.00 0.00 41 1017.0
20260503173005 14 15 12.9 25.7 0.00 0.00 0.00 40 1016.9
20260503172004 14 14 12.9 25.7 0.00 0.00 0.00 39 1016.8
20260503171504 15 14 11.3 25.7 0.00 0.00 0.00 40 1016.9
20260503170504 14 15 9.7 24.1 0.00 0.00 0.00 41 1017.0
20260503151004 13 17 8.0 20.9 0.00 0.03 0.00 44 1017.3
20260503131004 11 15 9.7 24.1 0.00 0.03 0.00 51 1017.1
20260503130504 11 15 11.3 22.5 0.00 0.03 0.00 51 1017.0